Terminal Aerodrome Forecast
Issued by NWS

Home | Current Version | Previous Version | Graphics & Text | Print | Product List | Glossary On
Versions: 1 2 3 4 5 6 7 8 9 10 11 12 13 14 15 16 17 18
000
FTUS43 KBIS 121100
TAFJMS
TAF
KJMS 121135Z 1212/1312 32004KT P6SM BKN080
     FM121900 27009KT P6SM SCT080
     FM130100 19005KT P6SM SKC=

USA.gov is the U.S. government's official web portal to all federal, state and local government web resources and services.